Location: Atherton
(17.2661°S, 145.4859°E)
Time: 23:17:37
(UTC+10:00)

Transit 2A - Pass Details

Date: 23 June 2025
Orbit: 598 x 948 km, 66.7° (Epoch: 19 July)

Event Time Altitude Azimuth Distance (km) Brightness Sun altitude
Rises 09:06:54 0° 4° (N) 3,340 9.9 27.7°
Reaches altitude 10° 09:09:33 10° 15° (NNE) 2,468 9.6 28.2°
Maximum altitude 09:14:28 29° 74° (ENE) 1,567 9.2 29.1°
Drops below altitude 10° 09:19:42 10° 132° (SE) 2,640 8.9 30.0°
Sets 09:22:37 0° 142° (SE) 3,613 9.4 30.5°
